Location: Newark
(52.2090°N, 4.1550°W)
Time: 08:21:48
(UTC+00:00)

Explorer 7 - Pass Details

Date: 21 September 2019
Orbit: 485 x 680 km, 50.3° (Epoch: 13 October)

Event Time Altitude Azimuth Distance (km) Brightness Sun altitude
Rises 03:31:44 0° 281° (W) 2,974 - -22.2°
Reaches altitude 10° 03:34:08 10° 275° (W) 2,082 - -21.9°
Maximum altitude 03:38:43 44° 204° (SSW) 930 - -21.3°
Exits shadow 03:39:02 44° 192° (SSW) 940 7.6 -21.3°
Drops below altitude 10° 03:43:22 10° 133° (SE) 2,115 10.0 -20.7°
Sets 03:45:49 0° 127° (SE) 3,026 10.9 -20.4°
